Wind_Speed
12 11 10 9 8 7 5 3 2 2 2 2 3 3 3 3 4 4 3 3 4 4 4 4 4 3 3 3 2 1 2 2 2 2 2 2 2 2 2 3 3 3 3 4
14 13 12 11 10 9 7 5 4 3 3 2 2 3 4 4 4 3 3 3 3 4 4 3 3 3 2 2 2 0 0 0 1 1 2 2 3 3 3 3 3 3 3 4
15 15 14 13 12 11 9 8 7 6 5 4 4 4 4 5 4 4 3 3 3 4 4 3 3 3 3 2 2 2 1 1 1 1 2 3 3 3 3 3 3 3 3 4
18 17 16 14 13 12 11 11 9 8 7 6 6 4 5 5 5 5 4 4 4 4 3 3 3 3 4 4 3 3 3 3 2 2 3 3 4 4 4 4 4 4 4 4
19 18 17 16 15 14 14 13 12 11 10 8 7 5 5 5 4 5 4 4 4 3 3 4 4 4 5 4 4 4 4 4 4 4 4 4 5 6 6 6 6 5 5 5
20 19 19 18 17 17 15 14 13 12 10 10 9 7 6 6 5 5 5 4 4 4 4 5 5 5 5 5 5 5 5 4 4 5 5 6 6 6 7 7 7 7 7 7
20 20 19 19 18 17 16 14 13 11 11 11 10 9 8 7 6 6 6 5 5 5 6 6 6 6 6 6 6 6 6 5 5 5 6 7 7 7 7 8 8 9 9 9
19 20 20 19 18 17 16 15 14 13 12 12 12 11 10 9 8 7 7 7 7 7 7 8 7 7 7 6 6 6 6 6 6 6 7 7 8 8 8 9 9 10 11 11
20 19 20 19 18 18 18 17 15 14 14 14 14 13 12 11 9 9 9 9 8 8 8 8 8 8 8 7 7 8 8 8 7 7 8 9 9 10 10 11 11 11 12 13
22 20 20 19 19 19 19 18 18 16 15 15 15 14 14 13 11 10 10 10 9 9 9 8 9 9 9 9 10 10 10 10 9 9 10 10 11 12 13 13 13 13 14 14
22 21 21 20 19 18 18 19 19 18 17 15 15 14 14 13 13 12 12 12 12 11 10 9 9 10 11 11 12 12 12 11 11 11 12 12 12 13 14 14 14 14 14 15
24 22 21 21 20 20 20 19 19 19 18 18 16 16 15 14 13 13 14 14 14 13 12 12 12 12 12 13 13 13 13 13 13 13 13 13 14 14 14 15 15 15 15 16
25 24 23 22 22 22 22 21 21 20 20 20 18 17 16 16 15 15 15 16 16 15 15 15 14 14 14 14 14 14 14 14 14 15 15 15 15 15 15 16 16 16 16 17
27 27 26 24 22 23 23 22 22 21 21 20 19 18 18 19 18 17 17 17 17 17 17 17 16 15 15 15 15 15 15 15 16 16 16 17 16 16 17 18 18 18 19 20
29 28 28 26 25 25 24 23 23 23 22 22 21 21 20 21 20 20 19 19 19 18 19 19 18 17 17 16 16 16 17 17 17 17 18 18 18 18 19 19 20 20 21 21
30 30 29 28 27 26 26 25 25 25 24 23 23 22 22 23 23 22 22 22 21 21 21 20 20 19 19 18 18 18 19 18 18 18 18 19 19 19 20 21 21 21 22 22
31 30 30 28 28 28 29 26 26 25 24 24 24 24 24 24 24 24 23 24 23 23 22 23 22 21 21 21 20 20 21 20 20 20 20 21 21 21 21 22 23 23 23 24
31 31 30 29 30 30 28 26 26 25 25 25 25 25 25 25 25 24 24 24 25 25 24 24 24 23 23 24 23 23 22 22 22 23 24 24 24 25 24 24 24 24 24 24
31 31 31 31 30 30 29 28 26 25 25 25 25 25 25 25 25 24 24 25 25 26 26 26 26 25 25 25 24 24 24 24 24 25 26 27 27 27 26 25 25 25 25 25
32 32 32 32 31 29 29 29 26 26 27 26 26 26 26 25 26 26 25 26 27 27 27 28 28 27 26 27 26 26 26 26 26 26 27 27 26 27 26 26 26 27 26 27
33 33 33 33 32 30 30 30 27 27 26 26 26 26 27 27 26 26 26 26 27 27 28 28 28 27 27 27 28 28 27 27 27 26 26 26 26 26 27 27 27 27 28 28
33 33 33 33 32 32 31 30 30 29 27 26 26 26 27 27 27 27 27 27 28 28 28 28 28 27 27 28 29 29 29 29 29 28 27 27 27 27 28 28 28 28 28 28
34 34 33 33 33 32 31 31 30 29 29 28 28 28 28 28 27 27 28 28 28 28 28 28 29 29 29 30 30 31 31 31 30 30 29 29 30 30 29 29 29 29 29 30
36 35 34 33 33 32 31 30 29 29 29 29 29 29 29 29 27 27 28 29 29 28 28 28 29 29 30 30 31 32 32 32 32 31 30 30 30 30 31 31 32 31 31 31
36 35 34 34 34 33 32 31 29 29 29 29 29 29 29 29 28 27 27 28 27 27 27 28 29 29 30 31 32 32 33 33 32 32 32 32 31 31 32 32 32 32 31 30
35 35 35 35 34 33 32 32 32 31 30 30 30 30 30 30 30 29 28 28 28 28 29 29 30 31 31 31 32 33 34 34 34 33 32 32 32 32 31 31 31 31 30 30
Wind_Direction
211 207 203 203 201 201 211 223 248 261 299 342 5 12 6 4 14 17 19 31 29 26 27 30 39 45 46 59 76 104 98 80 72 61 35 26 23 20 14 4 357 356 354 348
218 217 215 215 215 216 224 233 246 252 268 292 326 339 339 344 353 359 6 13 9 15 10 10 28 25 19 25 25 16 170 110 72 39 10 5 2 359 356 353 352 356 357 353
222 223 222 222 223 225 231 233 239 250 264 275 287 314 328 339 345 352 341 334 340 346 346 341 341 350 347 350 354 347 309 309 340 349 354 352 349 345 336 339 347 345 342 344
221 226 225 226 228 231 236 239 243 250 263 271 276 287 302 320 328 330 334 340 338 335 331 321 317 324 324 320 319 317 316 293 288 303 319 329 336 332 325 324 325 324 328 334
223 226 227 228 233 236 240 245 249 252 258 263 269 268 281 296 308 314 316 324 325 323 320 315 309 315 317 315 317 322 323 299 280 287 301 314 323 322 316 312 314 315 315 317
226 229 229 232 234 237 242 248 254 256 258 261 261 261 265 281 288 298 304 315 309 301 305 305 303 306 315 315 316 319 321 307 288 288 295 304 312 318 316 313 313 315 316 315
229 231 230 231 234 237 241 246 255 259 260 261 259 257 257 262 271 283 292 295 295 294 297 301 299 297 301 303 303 306 308 306 296 290 288 292 300 308 311 314 311 310 312 307
232 234 234 234 236 238 239 238 241 247 255 261 262 258 259 258 261 270 282 289 291 289 290 295 299 297 297 300 301 300 302 301 297 290 287 293 298 300 303 305 306 302 303 304
233 236 236 235 235 235 237 237 237 243 249 253 259 262 262 262 260 264 273 280 288 288 286 286 290 291 291 291 292 292 296 294 292 291 290 292 293 294 297 300 303 301 299 301
229 231 235 234 235 237 236 237 239 241 247 255 262 266 264 260 260 265 272 277 285 288 286 282 284 285 288 290 289 287 291 292 289 289 295 298 296 295 297 299 300 298 296 299
226 230 236 236 235 238 238 240 243 243 244 249 259 265 265 260 258 260 268 273 280 282 281 282 283 281 284 288 290 288 286 288 287 287 292 295 296 295 296 299 300 299 297 298
229 230 235 239 238 236 238 240 243 245 249 248 252 260 261 260 257 258 262 268 274 274 278 282 285 283 282 285 288 288 286 285 285 286 287 289 292 293 295 298 298 297 297 300
230 230 233 238 241 239 239 241 243 245 249 251 252 258 258 259 258 258 260 262 267 270 274 279 282 283 282 282 284 285 284 285 285 283 287 287 289 290 292 296 299 299 300 302
231 233 233 236 243 246 245 246 246 247 249 254 253 254 257 257 257 257 259 262 263 268 273 277 280 280 282 280 282 283 284 284 284 283 285 287 285 286 287 291 295 297 300 301
232 234 236 238 241 245 248 250 250 249 249 251 256 256 256 256 257 257 259 261 264 267 272 276 277 277 281 280 279 282 284 284 284 285 286 288 290 288 287 291 294 296 298 299
233 235 238 239 242 245 247 249 251 251 252 254 255 256 257 256 255 257 259 261 264 268 269 272 274 275 277 279 277 278 281 283 284 285 287 287 288 288 289 290 293 294 295 297
234 236 238 240 242 245 246 248 250 251 253 254 255 256 257 256 256 259 260 260 262 264 266 268 270 270 273 276 276 276 277 280 282 283 285 285 286 287 288 290 292 292 292 294
234 236 238 239 242 245 248 250 250 252 253 254 255 257 258 257 259 258 259 261 261 261 262 263 265 269 272 273 274 274 276 277 278 280 281 283 284 284 286 290 291 291 290 292
235 236 238 240 244 248 249 250 250 251 252 254 256 257 257 258 258 257 258 260 260 260 260 260 261 267 271 272 274 276 276 277 279 281 281 281 280 280 283 286 287 286 287 289
235 236 238 241 243 247 249 251 250 252 255 256 256 257 257 258 259 259 259 259 260 259 260 260 261 265 268 269 271 272 274 276 278 280 280 280 278 278 281 283 283 283 285 287
235 236 238 240 244 247 249 251 252 253 257 257 257 257 257 257 260 260 259 260 261 260 260 260 260 262 265 267 269 271 274 276 275 277 277 277 277 278 281 282 282 283 284 285
236 237 239 240 243 246 250 252 253 256 257 257 257 258 259 261 261 260 260 261 262 260 259 259 260 261 262 266 269 270 272 275 275 275 275 276 277 278 280 282 282 282 284 287
235 236 239 240 244 248 251 253 254 256 256 256 257 259 262 262 262 261 261 263 262 260 260 260 261 261 263 267 269 270 271 273 275 275 274 274 275 276 278 280 281 283 285 287
236 237 239 241 244 248 250 251 252 253 255 257 258 260 261 262 262 261 263 263 262 261 261 261 261 263 265 267 268 270 271 272 273 274 275 276 276 277 279 281 282 283 285 286
237 239 241 243 246 247 249 249 250 252 254 256 258 259 260 260 261 261 263 262 261 262 262 262 263 264 265 265 267 269 270 272 273 274 275 276 275 276 278 279 281 282 283 284
237 239 240 243 244 247 248 248 250 253 255 257 257 257 257 257 257 259 260 262 263 263 264 264 263 264 265 266 268 270 270 272 272 272 274 276 275 275 277 279 280 280 282 282
Height
5915 5918 5920 5921 5922 5923 5924 5924 5924 5924 5923 5922 5921 5921 5920 5919 5919 5918 5917 5916 5915 5914 5913 5913 5912 5911 5910 5910 5910 5910 5909 5909 5908 5908 5907 5906 5906 5905 5904 5903 5902 5902 5901 5900
5914 5916 5918 5919 5920 5921 5922 5923 5924 5924 5923 5922 5922 5921 5921 5920 5919 5918 5917 5917 5916 5915 5914 5913 5913 5912 5911 5911 5910 5910 5910 5909 5909 5908 5907 5907 5906 5905 5904 5903 5903 5902 5901 5900
5911 5914 5915 5917 5919 5920 5921 5922 5922 5922 5922 5922 5922 5922 5921 5920 5919 5918 5917 5917 5916 5915 5915 5914 5913 5913 5912 5911 5911 5910 5910 5909 5909 5908 5908 5907 5906 5905 5904 5903 5902 5902 5901 5900
5908 5910 5913 5915 5916 5918 5919 5920 5921 5921 5921 5922 5922 5922 5921 5920 5919 5918 5917 5917 5916 5915 5915 5914 5913 5913 5912 5912 5911 5910 5910 5909 5908 5908 5908 5907 5906 5905 5904 5903 5902 5901 5900 5900
5905 5907 5909 5912 5914 5915 5917 5918 5919 5919 5920 5921 5921 5921 5922 5919 5919 5918 5917 5916 5916 5915 5915 5914 5913 5912 5912 5911 5910 5910 5909 5908 5908 5907 5907 5906 5906 5905 5903 5903 5902 5900 5899 5899
5902 5904 5906 5908 5910 5912 5913 5915 5916 5917 5918 5919 5919 5920 5920 5919 5918 5917 5917 5916 5915 5915 5914 5914 5913 5912 5911 5911 5910 5909 5908 5907 5907 5906 5906 5905 5905 5904 5903 5902 5901 5900 5898 5897
5898 5899 5902 5904 5906 5908 5910 5913 5915 5916 5917 5917 5917 5917 5918 5917 5917 5916 5916 5915 5914 5914 5913 5913 5912 5911 5910 5910 5909 5908 5907 5906 5906 5905 5905 5904 5903 5902 5902 5901 5900 5898 5897 5896
5894 5897 5898 5900 5902 5905 5907 5910 5913 5915 5916 5916 5914 5914 5916 5915 5914 5914 5914 5913 5913 5913 5912 5912 5911 5910 5910 5909 5908 5907 5906 5905 5904 5904 5903 5902 5902 5901 5900 5899 5898 5897 5896 5894
5891 5893 5894 5896 5898 5901 5902 5904 5907 5910 5911 5912 5912 5912 5912 5912 5912 5912 5912 5912 5911 5911 5910 5910 5909 5909 5908 5907 5906 5905 5905 5904 5903 5902 5902 5901 5900 5899 5898 5897 5896 5895 5893 5892
5886 5889 5890 5892 5894 5896 5898 5900 5903 5905 5907 5908 5909 5909 5910 5909 5910 5910 5910 5910 5909 5909 5908 5908 5907 5907 5906 5905 5904 5903 5903 5902 5901 5901 5900 5899 5898 5897 5896 5894 5893 5892 5891 5889
5881 5884 5886 5887 5889 5892 5894 5896 5898 5900 5902 5905 5907 5909 5906 5906 5907 5907 5907 5907 5907 5906 5906 5905 5905 5904 5903 5903 5902 5901 5900 5899 5899 5898 5897 5896 5895 5894 5893 5892 5890 5889 5887 5886
5876 5879 5882 5883 5885 5887 5889 5891 5894 5896 5897 5899 5901 5905 5902 5902 5903 5903 5903 5903 5903 5903 5903 5902 5902 5901 5900 5900 5899 5898 5897 5896 5896 5895 5894 5893 5892 5891 5890 5889 5887 5885 5884 5883
5870 5874 5877 5879 5882 5882 5884 5886 5888 5891 5892 5893 5896 5900 5897 5898 5898 5899 5899 5899 5899 5899 5899 5899 5898 5898 5897 5896 5895 5894 5894 5893 5892 5892 5891 5890 5889 5887 5886 5885 5883 5882 5880 5879
5864 5868 5872 5876 5877 5877 5879 5881 5883 5885 5887 5888 5890 5892 5893 5893 5893 5894 5894 5894 5894 5895 5895 5894 5894 5893 5893 5892 5891 5890 5890 5889 5888 5887 5887 5886 5884 5883 5882 5881 5879 5878 5877 5875
5857 5861 5864 5868 5870 5872 5873 5875 5877 5878 5881 5883 5885 5885 5887 5887 5888 5888 5889 5889 5889 5890 5890 5890 5889 5889 5888 5888 5887 5886 5885 5884 5883 5883 5882 5881 5880 5879 5878 5877 5875 5874 5872 5870
5851 5855 5858 5861 5863 5865 5867 5869 5870 5872 5874 5876 5877 5879 5880 5880 5881 5882 5883 5883 5884 5884 5884 5884 5884 5883 5883 5883 5882 5881 5880 5880 5879 5878 5877 5876 5875 5874 5873 5872 5870 5869 5867 5865
5844 5848 5852 5855 5857 5858 5860 5863 5864 5866 5867 5869 5870 5873 5873 5873 5874 5875 5876 5876 5877 5877 5878 5878 5877 5877 5877 5877 5876 5876 5875 5874 5873 5873 5872 5871 5870 5869 5868 5866 5865 5863 5862 5860
5837 5841 5844 5848 5850 5851 5856 5856 5858 5859 5861 5862 5863 5864 5865 5866 5867 5868 5869 5869 5869 5870 5870 5870 5871 5871 5871 5870 5870 5870 5869 5868 5868 5867 5866 5865 5864 5863 5862 5860 5859 5857 5855 5854
5829 5833 5836 5840 5842 5844 5847 5849 5851 5852 5854 5855 5856 5857 5858 5859 5860 5861 5861 5861 5862 5862 5863 5863 5863 5864 5864 5864 5863 5863 5863 5862 5861 5860 5859 5858 5857 5856 5855 5854 5853 5851 5849 5848
5821 5825 5829 5831 5834 5837 5840 5841 5843 5846 5846 5848 5848 5849 5850 5851 5852 5853 5853 5854 5854 5854 5855 5855 5856 5856 5856 5856 5856 5856 5855 5855 5854 5853 5852 5851 5850 5849 5848 5847 5845 5844 5843 5841
5813 5816 5820 5823 5826 5829 5831 5833 5836 5839 5840 5840 5841 5841 5842 5843 5844 5845 5845 5846 5846 5846 5847 5847 5847 5848 5848 5848 5848 5848 5847 5847 5846 5845 5844 5844 5843 5842 5841 5840 5838 5837 5835 5834
5805 5809 5812 5815 5818 5822 5823 5825 5828 5829 5831 5832 5832 5833 5834 5835 5835 5836 5837 5837 5838 5838 5838 5839 5839 5840 5840 5840 5840 5840 5840 5839 5838 5838 5837 5836 5836 5835 5833 5832 5831 5829 5828 5826
5797 5801 5803 5807 5811 5813 5815 5817 5819 5821 5822 5823 5825 5826 5826 5827 5827 5828 5829 5829 5830 5830 5831 5831 5831 5832 5833 5833 5833 5832 5832 5831 5830 5830 5829 5828 5828 5827 5825 5824 5823 5821 5820 5819
5788 5791 5795 5798 5801 5804 5806 5807 5810 5812 5813 5814 5816 5817 5818 5818 5819 5820 5821 5821 5822 5822 5823 5823 5823 5824 5825 5825 5824 5824 5823 5823 5823 5821 5821 5820 5819 5818 5817 5816 5815 5813 5812 5810
5779 5783 5786 5789 5792 5794 5797 5798 5801 5803 5804 5806 5807 5808 5809 5810 5811 5812 5812 5813 5813 5814 5815 5815 5815 5816 5816 5816 5816 5815 5815 5814 5814 5813 5812 5811 5810 5809 5808 5807 5806 5805 5803 5802
5771 5774 5777 5780 5783 5785 5788 5790 5792 5794 5795 5797 5798 5800 5800 5801 5802 5803 5804 5805 5805 5806 5806 5807 5807 5807 5807 5807 5807 5806 5805 5805 5804 5804 5803 5802 5801 5800 5799 5798 5797 5795 5794 5793